When you browse on this site, cookies collect data to enhance your experience and personalize the content and advertising you see.
Visit our Privacy Policy to learn more. By continuing to use the site, you agree to this use of cookies and data.
  • In Romania
  • List of Countries
  • For 7 days
  • Water Temperature
  • Weather Map
  • Weather Widgets
  • user-avatar
    Login

    Hourly Weather Wlora

    Today, 29 May, Friday

    Time Temperature Precipitation Wind Pressure Humidity
    00:00 +16°C° 0 mm 3 mps 763 mmHg 71%
    01:00 +16°C° 0 mm 3 mps 763 mmHg 69%
    02:00 +14°C° 0 mm 3 mps 763 mmHg 69%
    03:00 +14°C° 0 mm 3 mps 763 mmHg 69%
    04:00 +14°C° 0 mm 3 mps 762 mmHg 70%
    05:00 +16°C° 0.1 mm 3 mps 763 mmHg 68%
    06:00 +17°C° 0.1 mm 3 mps 763 mmHg 66%
    07:00 +19°C° 0.1 mm 3 mps 763 mmHg 65%
    08:00 +19°C° 0.2 mm 3 mps 763 mmHg 62%
    09:00 +20°C° 0.2 mm 3 mps 763 mmHg 59%
    10:00 +21°C° 0.2 mm 4 mps 763 mmHg 56%
    11:00 +21°C° 0.1 mm 3 mps 762 mmHg 55%
    12:00 +21°C° 0.1 mm 3 mps 762 mmHg 55%
    13:00 +22°C° 0.1 mm 3 mps 762 mmHg 54%
    14:00 +22°C° 0.1 mm 3 mps 762 mmHg 54%
    15:00 +21°C° 0.1 mm 2 mps 762 mmHg 55%
    16:00 +21°C° 0.1 mm 2 mps 761 mmHg 55%
    17:00 +20°C° 0 mm 2 mps 761 mmHg 61%
    18:00 +19°C° 0 mm 2 mps 761 mmHg 68%
    19:00 +18°C° 0 mm 2 mps 761 mmHg 74%
    20:00 +17°C° 0 mm 2 mps 762 mmHg 75%
    21:00 +16°C° 0 mm 2 mps 762 mmHg 76%
    22:00 +16°C° 0 mm 2 mps 762 mmHg 78%
    23:00 +16°C° 0 mm 2 mps 762 mmHg 77%

    Tomorrow, 30 May, Saturday

    Time Temperature Precipitation Wind Pressure Humidity
    00:00 +15°C° 0 mm 1 mps 762 mmHg 76%
    01:00 +15°C° 0 mm 1 mps 762 mmHg 76%
    02:00 +15°C° 0 mm 1 mps 762 mmHg 76%
    03:00 +15°C° 0 mm 1 mps 762 mmHg 76%
    04:00 +15°C° 0 mm 2 mps 762 mmHg 76%
    05:00 +16°C° 0 mm 1 mps 762 mmHg 70%
    06:00 +18°C° 0 mm 1 mps 762 mmHg 65%
    07:00 +20°C° 0 mm 1 mps 762 mmHg 59%
    08:00 +21°C° 0 mm 1 mps 762 mmHg 56%
    09:00 +22°C° 0 mm 1 mps 762 mmHg 53%
    10:00 +23°C° 0 mm 1 mps 762 mmHg 50%
    11:00 +23°C° 0 mm 2 mps 761 mmHg 50%
    12:00 +23°C° 0 mm 2 mps 761 mmHg 51%
    13:00 +22°C° 0 mm 3 mps 761 mmHg 52%
    14:00 +22°C° 0 mm 3 mps 761 mmHg 53%
    15:00 +21°C° 0 mm 3 mps 761 mmHg 54%
    16:00 +21°C° 0 mm 3 mps 761 mmHg 55%
    17:00 +20°C° 0 mm 2 mps 761 mmHg 61%
    18:00 +19°C° 0 mm 2 mps 761 mmHg 67%
    19:00 +17°C° 0 mm 2 mps 761 mmHg 73%
    20:00 +17°C° 0.2 mm 3 mps 761 mmHg 73%
    21:00 +17°C° 0.2 mm 3 mps 761 mmHg 73%
    22:00 +15°C° 0.2 mm 4 mps 761 mmHg 72%
    23:00 +15°C° 0.1 mm 4 mps 761 mmHg 70%

    Day after tomorrow, 31 May, Sunday

    Time Temperature Precipitation Wind Pressure Humidity
    00:00 +17°C° 0.1 mm 4 mps 761 mmHg 68%
    01:00 +17°C° 0.1 mm 4 mps 760 mmHg 65%
    02:00 +17°C° 0.3 mm 4 mps 760 mmHg 67%
    03:00 +15°C° 0.3 mm 4 mps 760 mmHg 69%
    04:00 +15°C° 0.3 mm 4 mps 760 mmHg 70%
    05:00 +17°C° 0.5 mm 4 mps 760 mmHg 68%
    06:00 +18°C° 0.5 mm 4 mps 760 mmHg 65%
    07:00 +19°C° 0.5 mm 4 mps 760 mmHg 63%
    08:00 +20°C° 0.2 mm 4 mps 760 mmHg 61%
    09:00 +21°C° 0.2 mm 4 mps 761 mmHg 59%
    10:00 +22°C° 0.2 mm 4 mps 761 mmHg 57%
    11:00 +22°C° 0.1 mm 4 mps 760 mmHg 56%
    12:00 +22°C° 0.1 mm 4 mps 760 mmHg 56%
    13:00 +22°C° 0.1 mm 4 mps 760 mmHg 55%
    14:00 +22°C° 0 mm 3 mps 760 mmHg 57%
    15:00 +23°C° 0 mm 2 mps 760 mmHg 58%
    16:00 +21°C° 0 mm 2 mps 759 mmHg 59%
    17:00 +20°C° 0 mm 2 mps 759 mmHg 66%
    18:00 +19°C° 0 mm 2 mps 759 mmHg 72%
    19:00 +18°C° 0 mm 2 mps 759 mmHg 79%
    20:00 +17°C° 0 mm 2 mps 760 mmHg 80%
    21:00 +17°C° 0 mm 2 mps 760 mmHg 82%
    22:00 +16°C° 0 mm 2 mps 760 mmHg 83%
    23:00 +16°C° 0 mm 2 mps 760 mmHg 81%

    1 June, Monday

    Time Temperature Precipitation Wind Pressure Humidity
    00:00 +16°C° 0 mm 1 mps 760 mmHg 80%
    01:00 +16°C° 0 mm 1 mps 759 mmHg 79%
    02:00 +16°C° 0 mm 2 mps 759 mmHg 79%
    03:00 +16°C° 0 mm 2 mps 759 mmHg 79%
    04:00 +15°C° 0 mm 2 mps 759 mmHg 79%
    05:00 +17°C° 0 mm 2 mps 759 mmHg 72%
    06:00 +19°C° 0 mm 1 mps 759 mmHg 65%
    07:00 +20°C° 0 mm 1 mps 759 mmHg 58%
    08:00 +20°C° 0.1 mm 2 mps 759 mmHg 56%
    09:00 +21°C° 0.1 mm 2 mps 759 mmHg 54%
    10:00 +21°C° 0.1 mm 2 mps 759 mmHg 52%
    11:00 +21°C° 0 mm 3 mps 759 mmHg 52%
    12:00 +22°C° 0 mm 3 mps 759 mmHg 51%
    13:00 +22°C° 0 mm 3 mps 759 mmHg 50%
    14:00 +22°C° 0 mm 3 mps 759 mmHg 51%
    15:00 +21°C° 0 mm 3 mps 758 mmHg 52%
    16:00 +21°C° 0 mm 3 mps 758 mmHg 52%
    17:00 +20°C° 0 mm 3 mps 758 mmHg 59%
    18:00 +19°C° 0 mm 3 mps 758 mmHg 65%
    19:00 +18°C° 0 mm 2 mps 758 mmHg 72%
    20:00 +17°C° 0 mm 2 mps 758 mmHg 73%
    21:00 +17°C° 0 mm 2 mps 758 mmHg 73%
    22:00 +16°C° 0 mm 2 mps 758 mmHg 74%
    23:00 +16°C° 0.1 mm 2 mps 758 mmHg 76%

    2 June, Tuesday

    Time Temperature Precipitation Wind Pressure Humidity
    00:00 +16°C° 0.1 mm 2 mps 758 mmHg 77%
    01:00 +14°C° 0.1 mm 3 mps 758 mmHg 78%
    02:00 +15°C° 0 mm 2 mps 758 mmHg 78%
    03:00 +15°C° 0 mm 2 mps 757 mmHg 79%
    04:00 +15°C° 0 mm 2 mps 757 mmHg 79%
    05:00 +16°C° 0 mm 2 mps 757 mmHg 73%
    06:00 +19°C° 0 mm 1 mps 757 mmHg 68%
    07:00 +20°C° 0 mm 1 mps 757 mmHg 62%
    08:00 +21°C° 0 mm 1 mps 757 mmHg 60%
    09:00 +21°C° 0 mm 2 mps 757 mmHg 57%
    10:00 +23°C° 0 mm 2 mps 757 mmHg 54%
    11:00 +23°C° 0.1 mm 2 mps 757 mmHg 57%
    12:00 +22°C° 0.1 mm 3 mps 757 mmHg 59%
    13:00 +22°C° 0.1 mm 3 mps 757 mmHg 62%
    14:00 +22°C° 0.1 mm 3 mps 756 mmHg 62%
    15:00 +21°C° 0.1 mm 3 mps 756 mmHg 62%
    16:00 +21°C° 0.1 mm 3 mps 756 mmHg 62%
    17:00 +20°C° 0 mm 3 mps 756 mmHg 67%
    18:00 +19°C° 0 mm 3 mps 756 mmHg 72%
    19:00 +18°C° 0 mm 4 mps 756 mmHg 77%
    20:00 +17°C° 0 mm 4 mps 756 mmHg 79%
    21:00 +17°C° 0 mm 4 mps 757 mmHg 81%
    22:00 +15°C° 0 mm 4 mps 757 mmHg 83%
    23:00 +15°C° 0 mm 4 mps 757 mmHg 82%

    3 June, Wednesday

    Time Temperature Precipitation Wind Pressure Humidity
    00:00 +15°C° 0 mm 4 mps 756 mmHg 80%
    01:00 +16°C° 0 mm 3 mps 756 mmHg 78%
    02:00 +15°C° 0 mm 4 mps 756 mmHg 78%
    03:00 +15°C° 0 mm 4 mps 756 mmHg 77%
    04:00 +15°C° 0 mm 4 mps 756 mmHg 77%
    05:00 +17°C° 0.2 mm 4 mps 756 mmHg 73%
    06:00 +18°C° 0.2 mm 3 mps 756 mmHg 69%
    07:00 +20°C° 0.2 mm 3 mps 756 mmHg 64%
    08:00 +21°C° 0.1 mm 3 mps 756 mmHg 61%
    09:00 +22°C° 0.1 mm 3 mps 756 mmHg 57%
    10:00 +24°C° 0.1 mm 3 mps 756 mmHg 53%
    11:00 +24°C° 0 mm 3 mps 756 mmHg 54%
    12:00 +25°C° 0 mm 4 mps 756 mmHg 55%
    13:00 +25°C° 0 mm 4 mps 756 mmHg 56%
    14:00 +23°C° 0 mm 4 mps 756 mmHg 57%
    15:00 +23°C° 0 mm 4 mps 756 mmHg 58%
    16:00 +23°C° 0 mm 5 mps 756 mmHg 59%
    17:00 +22°C° 0 mm 4 mps 756 mmHg 65%
    18:00 +20°C° 0 mm 4 mps 756 mmHg 71%
    19:00 +19°C° 0 mm 4 mps 756 mmHg 77%
    20:00 +18°C° 0 mm 4 mps 757 mmHg 77%
    21:00 +18°C° 0 mm 3 mps 757 mmHg 77%
    22:00 +18°C° 0 mm 3 mps 758 mmHg 77%
    23:00 +18°C° 0 mm 2 mps 757 mmHg 75%
    Show more